Temp
-5 -5 -5 -6 -6 -5 -5 -5 -5 -6 -6 -6 -6 -6 -6 -7 -7 -7 -7 -7 -7 -7 -7 -7 -7 -7 -6 -6 -6 -6 -7 -7 -6 -6 -6 -6 -6 -6 -6 -6 -6 -6 -6 -6 -6 -6 -6 -6 -6
-5 -5 -5 -6 -6 -6 -5 -5 -5 -6 -6 -6 -6 -6 -7 -7 -7 -7 -7 -8 -7 -7 -7 -7 -7 -7 -7 -6 -6 -6 -6 -7 -7 -6 -7 -6 -6 -6 -6 -6 -6 -6 -6 -6 -6 -6 -6 -6 -6
-5 -5 -6 -6 -6 -6 -5 -5 -5 -6 -6 -6 -6 -6 -7 -7 -7 -7 -7 -8 -8 -7 -7 -7 -7 -7 -7 -6 -7 -7 -7 -6 -6 -7 -7 -7 -7 -6 -6 -6 -6 -6 -6 -7 -6 -6 -6 -6 -6
-5 -6 -6 -6 -6 -5 -5 -6 -6 -6 -5 -6 -6 -6 -7 -7 -7 -7 -7 -7 -7 -7 -7 -7 -7 -7 -7 -7 -7 -7 -6 -6 -6 -6 -7 -7 -6 -6 -6 -6 -6 -6 -6 -7 -6 -6 -6 -6 -6
-5 -5 -5 -6 -6 -5 -5 -5 -6 -6 -6 -6 -7 -7 -7 -7 -8 -8 -7 -7 -7 -7 -7 -7 -7 -7 -7 -7 -7 -6 -6 -6 -6 -6 -6 -6 -6 -6 -6 -6 -6 -6 -7 -7 -6 -6 -7 -6 -6
-5 -6 -6 -6 -5 -5 -5 -5 -6 -6 -6 -6 -6 -6 -7 -7 -8 -8 -8 -8 -8 -7 -7 -7 -7 -7 -7 -7 -7 -6 -7 -7 -6 -6 -6 -6 -6 -6 -6 -6 -6 -6 -6 -7 -6 -6 -7 -6 -6
-5 -6 -6 -5 -5 -5 -5 -5 -5 -5 -5 -6 -6 -6 -7 -7 -8 -8 -8 -8 -8 -8 -7 -7 -7 -7 -7 -7 -7 -7 -7 -7 -7 -6 -6 -6 -6 -6 -6 -6 -6 -6 -6 -6 -6 -6 -6 -6 -6
-5 -5 -5 -5 -5 -5 -5 -5 -5 -5 -5 -6 -6 -6 -7 -6 -7 -8 -8 -8 -8 -8 -7 -7 -7 -7 -7 -7 -7 -7 -6 -6 -6 -6 -6 -6 -6 -6 -6 -6 -6 -6 -6 -6 -7 -6 -6 -6 -7
-5 -5 -6 -6 -6 -6 -6 -5 -5 -5 -5 -5 -6 -6 -6 -6 -6 -7 -8 -8 -8 -8 -8 -7 -7 -7 -7 -7 -7 -7 -7 -7 -7 -7 -6 -6 -6 -5 -5 -6 -6 -6 -6 -6 -6 -6 -6 -6 -6
-4 -5 -5 -6 -6 -6 -6 -6 -5 -5 -5 -5 -5 -6 -6 -6 -6 -7 -7 -7 -8 -8 -7 -7 -7 -7 -7 -7 -7 -7 -7 -6 -6 -6 -6 -6 -6 -6 -6 -6 -6 -6 -6 -6 -6 -6 -6 -6 -6
-4 -4 -5 -6 -6 -6 -5 -5 -5 -5 -5 -5 -5 -6 -6 -6 -6 -7 -7 -7 -7 -7 -7 -7 -7 -7 -7 -7 -7 -6 -6 -6 -6 -6 -6 -6 -6 -6 -6 -6 -6 -6 -6 -7 -6 -6 -6 -6 -6
-5 -5 -5 -5 -5 -5 -5 -5 -5 -5 -5 -5 -5 -5 -6 -6 -6 -6 -7 -7 -7 -7 -7 -7 -6 -6 -6 -6 -6 -6 -6 -6 -7 -6 -6 -6 -6 -6 -7 -7 -7 -7 -6 -7 -7 -7 -6 -6 -6
-5 -5 -5 -6 -6 -5 -5 -5 -5 -5 -5 -5 -5 -5 -5 -5 -5 -6 -6 -7 -6 -7 -7 -6 -6 -6 -6 -6 -6 -6 -7 -6 -6 -6 -6 -6 -7 -7 -7 -7 -6 -6 -6 -6 -6 -6 -6 -7 -7
-6 -6 -6 -6 -6 -6 -5 -5 -5 -6 -5 -5 -5 -5 -5 -5 -5 -5 -5 -6 -6 -6 -7 -7 -6 -6 -6 -6 -6 -6 -6 -6 -7 -7 -6 -6 -6 -6 -7 -7 -7 -7 -7 -6 -6 -6 -6 -7 -7
-5 -5 -5 -5 -6 -6 -6 -6 -6 -6 -6 -5 -5 -5 -5 -5 -5 -5 -5 -6 -6 -6 -6 -6 -6 -6 -6 -6 -6 -7 -6 -6 -6 -6 -7 -6 -6 -7 -7 -7 -6 -6 -7 -7 -6 -6 -6 -6 -7
-6 -6 -5 -5 -6 -7 -6 -6 -6 -6 -6 -6 -5 -5 -5 -5 -5 -5 -5 -5 -6 -6 -5 -6 -6 -6 -6 -7 -6 -6 -6 -6 -7 -6 -6 -7 -7 -7 -7 -7 -6 -6 -6 -6 -6 -6 -6 -7 -7
-6 -6 -6 -6 -6 -7 -7 -7 -7 -7 -6 -6 -6 -5 -5 -5 -5 -5 -5 -5 -6 -5 -5 -6 -6 -6 -6 -6 -6 -7 -7 -6 -6 -7 -7 -7 -7 -7 -7 -7 -7 -6 -6 -6 -6 -6 -7 -7 -7
-6 -6 -6 -6 -7 -7 -7 -8 -7 -7 -6 -6 -6 -6 -5 -5 -5 -5 -5 -6 -6 -6 -5 -6 -6 -6 -6 -6 -7 -7 -6 -6 -7 -7 -7 -6 -6 -6 -7 -6 -7 -6 -6 -6 -6 -6 -7 -7 -7
-6 -6 -6 -6 -6 -7 -7 -7 -7 -7 -6 -6 -6 -6 -6 -5 -5 -5 -5 -6 -6 -6 -6 -6 -6 -6 -6 -6 -6 -7 -7 -7 -7 -7 -7 -7 -7 -6 -7 -7 -7 -6 -5 -5 -6 -6 -7 -7 -7
-7 -7 -6 -6 -6 -6 -6 -7 -7 -7 -6 -6 -6 -6 -6 -6 -5 -5 -5 -6 -6 -6 -6 -6 -6 -6 -6 -6 -6 -7 -7 -7 -7 -7 -7 -7 -7 -7 -7 -7 -7 -6 -6 -6 -6 -7 -7 -7 -7
-7 -7 -7 -6 -6 -6 -6 -7 -7 -7 -7 -7 -5 -5 -5 -5 -5 -5 -5 -6 -6 -6 -6 -6 -6 -7 -7 -7 -7 -7 -7 -7 -7 -8 -7 -7 -7 -7 -7 -7 -7 -6 -6 -6 -6 -6 -7 -7 -7
-6 -7 -7 -7 -6 -6 -5 -7 -7 -7 -7 -7 -6 -6 -5 -5 -5 -5 -6 -6 -6 -6 -6 -6 -6 -7 -7 -7 -7 -7 -8 -8 -8 -7 -7 -7 -7 -7 -7 -7 -7 -7 -6 -6 -6 -6 -7 -7 -7
-6 -7 -7 -6 -6 -6 -5 -6 -6 -6 -7 -7 -6 -5 -5 -5 -5 -5 -6 -6 -6 -6 -6 -6 -6 -7 -8 -8 -8 -8 -7 -8 -7 -7 -8 -7 -7 -7 -7 -7 -7 -7 -7 -7 -7 -7 -6 -6 -7
-6 -6 -6 -6 -6 -6 -5 -6 -5 -6 -6 -6 -6 -6 -6 -5 -5 -6 -6 -6 -6 -6 -7 -7 -7 -7 -7 -8 -8 -8 -7 -7 -7 -7 -7 -7 -7 -7 -7 -7 -7 -7 -7 -7 -7 -7 -7 -7 -7
-6 -6 -5 -5 -5 -5 -5 -5 -6 -6 -6 -5 -5 -6 -5 -5 -6 -6 -6 -6 -6 -6 -6 -7 -6 -6 -7 -7 -7 -7 -7 -7 -7 -7 -7 -7 -7 -7 -7 -7 -7 -7 -7 -7 -6 -7 -7 -7 -7
-7 -6 -6 -5 -5 -5 -5 -5 -5 -5 -6 -7 -6 -5 -5 -5 -6 -6 -6 -6 -6 -6 -6 -7 -7 -7 -7 -7 -7 -7 -7 -7 -7 -7 -7 -7 -7 -7 -7 -7 -7 -7 -7 -7 -6 -6 -6 -6 -6
-8 -6 -7 -5 -5 -5 -5 -5 -5 -5 -6 -6 -5 -5 -5 -5 -6 -6 -6 -6 -6 -6 -6 -6 -7 -7 -7 -7 -7 -7 -7 -7 -7 -7 -7 -7 -7 -7 -7 -7 -7 -7 -7 -7 -6 -6 -6 -6 -6
-6 -7 -7 -7 -5 -5 -5 -6 -5 -5 -6 -5 -5 -5 -5 -6 -6 -6 -6 -6 -6 -6 -6 -6 -6 -7 -7 -7 -7 -7 -7 -7 -7 -7 -7 -7 -7 -7 -7 -7 -7 -7 -7 -7 -7 -6 -6 -6 -6
-7 -7 -7 -7 -7 -5 -5 -6 -6 -5 -5 -6 -6 -5 -6 -6 -6 -6 -6 -6 -6 -6 -6 -6 -6 -7 -6 -7 -7 -7 -7 -7 -7 -7 -7 -7 -7 -7 -7 -8 -7 -7 -7 -7 -7 -7 -7 -7 -6
-7 -8 -7 -7 -7 -6 -6 -6 -6 -6 -6 -6 -6 -6 -6 -6 -6 -6 -6 -6 -6 -6 -6 -7 -7 -7 -7 -7 -7 -7 -7 -7 -7 -7 -7 -8 -8 -8 -8 -8 -8 -8 -8 -8 -7 -7 -8 -7 -7
Height
5885 5884 5884 5882 5886 5883 5882 5882 5881 5881 5882 5882 5882 5883 5882 5882 5883 5886 5885 5886 5887 5888 5888 5889 5890 5891 5893 5894 5896 5897 5899 5900 5901 5902 5903 5904 5903 5903 5904 5904 5905 5905 5906 5906 5906 5907 5906 5905 5904
5887 5886 5886 5885 5885 5884 5884 5883 5883 5882 5883 5883 5884 5883 5883 5884 5884 5885 5886 5886 5888 5888 5888 5889 5890 5892 5894 5895 5897 5898 5900 5901 5902 5903 5904 5905 5904 5904 5905 5905 5906 5907 5906 5907 5907 5908 5907 5907 5905
5890 5889 5889 5887 5886 5885 5885 5884 5884 5884 5884 5884 5885 5885 5885 5886 5886 5887 5887 5887 5888 5889 5889 5890 5892 5893 5895 5897 5898 5900 5900 5902 5904 5905 5905 5905 5905 5906 5907 5906 5907 5907 5907 5907 5908 5908 5908 5908 5907
5893 5892 5892 5889 5888 5887 5887 5886 5886 5886 5886 5885 5886 5887 5887 5887 5888 5888 5888 5889 5889 5890 5890 5891 5893 5895 5896 5898 5900 5901 5902 5903 5904 5906 5906 5907 5906 5907 5908 5908 5908 5909 5908 5908 5909 5909 5909 5908 5908
5895 5894 5892 5891 5890 5889 5889 5889 5888 5888 5888 5887 5887 5888 5889 5888 5889 5890 5890 5891 5892 5892 5893 5894 5895 5896 5897 5899 5901 5902 5903 5905 5906 5906 5907 5908 5908 5909 5909 5909 5910 5910 5910 5909 5910 5910 5910 5909 5909
5899 5897 5894 5892 5891 5891 5891 5891 5891 5890 5890 5889 5889 5890 5890 5889 5890 5891 5892 5894 5894 5895 5895 5896 5897 5898 5899 5900 5901 5902 5904 5906 5906 5907 5908 5909 5909 5910 5911 5911 5911 5911 5911 5911 5911 5911 5910 5909 5909
5901 5898 5897 5895 5893 5893 5893 5893 5893 5892 5891 5891 5891 5890 5891 5891 5891 5893 5893 5894 5895 5896 5897 5898 5899 5900 5900 5901 5902 5903 5905 5906 5906 5907 5908 5909 5909 5911 5912 5912 5913 5913 5912 5912 5911 5912 5912 5911 5910
5902 5901 5900 5897 5896 5895 5894 5895 5895 5894 5893 5893 5891 5891 5891 5892 5893 5893 5894 5895 5896 5898 5899 5900 5901 5901 5901 5902 5903 5904 5905 5906 5907 5908 5909 5909 5910 5912 5913 5914 5914 5914 5913 5912 5912 5912 5912 5911 5910
5904 5902 5900 5899 5898 5897 5896 5896 5895 5896 5895 5894 5893 5893 5893 5893 5894 5894 5894 5895 5897 5899 5900 5901 5902 5902 5903 5904 5904 5905 5907 5907 5908 5909 5910 5910 5911 5912 5912 5913 5913 5913 5913 5913 5912 5912 5911 5911 5910
5905 5903 5901 5901 5899 5899 5898 5897 5896 5897 5897 5897 5896 5896 5895 5895 5895 5896 5896 5896 5898 5900 5901 5902 5904 5904 5905 5905 5906 5907 5908 5909 5909 5909 5910 5910 5911 5911 5911 5911 5912 5912 5912 5912 5913 5912 5912 5911 5910
5907 5905 5904 5902 5900 5901 5900 5899 5897 5897 5897 5898 5898 5897 5898 5897 5897 5896 5897 5897 5898 5901 5902 5904 5905 5905 5905 5906 5907 5909 5910 5910 5910 5910 5910 5910 5910 5911 5911 5911 5910 5911 5911 5911 5911 5911 5911 5910 5909
5910 5908 5907 5905 5903 5901 5901 5900 5899 5899 5898 5899 5899 5899 5899 5900 5899 5898 5899 5899 5901 5902 5903 5904 5905 5906 5907 5908 5908 5910 5911 5911 5911 5910 5911 5911 5911 5911 5911 5910 5909 5909 5909 5909 5910 5910 5910 5909 5909
5911 5910 5909 5908 5907 5905 5904 5903 5901 5900 5900 5901 5901 5901 5901 5900 5901 5900 5901 5901 5902 5903 5904 5905 5906 5906 5907 5907 5908 5910 5911 5911 5911 5911 5911 5911 5911 5911 5910 5909 5908 5907 5907 5907 5907 5908 5907 5907 5906
5913 5911 5909 5907 5908 5909 5909 5907 5905 5903 5902 5902 5901 5902 5902 5903 5901 5902 5902 5903 5904 5904 5905 5905 5906 5907 5908 5908 5909 5910 5911 5912 5911 5912 5912 5912 5911 5910 5909 5908 5906 5906 5905 5905 5904 5904 5904 5904 5903
5914 5913 5910 5909 5910 5908 5907 5907 5906 5905 5903 5903 5902 5903 5904 5904 5903 5903 5904 5905 5905 5906 5906 5907 5907 5907 5908 5909 5910 5911 5912 5912 5911 5911 5911 5911 5911 5910 5907 5905 5902 5903 5902 5902 5902 5900 5899 5899 5900
5915 5915 5913 5910 5909 5908 5908 5906 5905 5904 5904 5904 5904 5904 5904 5905 5905 5904 5905 5906 5907 5908 5908 5908 5908 5908 5908 5910 5910 5911 5911 5911 5910 5910 5910 5909 5909 5907 5902 5902 5900 5899 5898 5897 5898 5898 5896 5897 5897
5915 5915 5913 5911 5909 5907 5907 5907 5905 5905 5904 5905 5905 5906 5906 5906 5906 5907 5906 5906 5908 5909 5908 5908 5909 5909 5909 5909 5910 5910 5910 5910 5909 5909 5908 5908 5908 5905 5902 5900 5897 5895 5894 5894 5894 5895 5894 5895 5895
5916 5916 5915 5913 5911 5908 5907 5907 5906 5905 5906 5906 5907 5908 5908 5908 5908 5907 5907 5907 5908 5910 5910 5909 5909 5909 5909 5910 5910 5910 5909 5909 5909 5908 5908 5908 5906 5904 5901 5898 5896 5893 5890 5890 5891 5891 5893 5893 5893
5915 5916 5916 5914 5912 5910 5907 5907 5906 5903 5906 5908 5908 5908 5908 5909 5908 5907 5907 5907 5908 5909 5910 5910 5909 5909 5910 5909 5909 5909 5908 5908 5908 5908 5907 5907 5906 5903 5901 5898 5896 5893 5889 5889 5888 5890 5891 5892 5892
5913 5914 5915 5915 5913 5911 5907 5906 5906 5905 5905 5908 5909 5908 5907 5907 5907 5907 5907 5906 5907 5908 5909 5909 5909 5909 5908 5909 5909 5909 5909 5908 5907 5907 5907 5907 5905 5904 5902 5900 5898 5896 5893 5890 5889 5890 5891 5889 5890
5911 5912 5914 5915 5914 5913 5909 5907 5906 5905 5904 5905 5905 5906 5907 5905 5905 5905 5906 5907 5908 5908 5908 5907 5906 5907 5908 5908 5908 5909 5908 5907 5907 5907 5906 5906 5905 5904 5903 5901 5899 5898 5896 5895 5893 5892 5891 5891 5892
5908 5910 5912 5913 5913 5913 5911 5909 5907 5905 5904 5902 5903 5904 5904 5906 5905 5904 5905 5906 5907 5907 5908 5907 5906 5906 5906 5907 5908 5908 5908 5908 5907 5906 5906 5905 5904 5904 5903 5902 5900 5898 5897 5895 5894 5893 5892 5892 5892
5908 5908 5908 5909 5911 5912 5910 5909 5906 5905 5903 5900 5900 5902 5904 5904 5904 5904 5904 5905 5906 5907 5907 5907 5906 5905 5905 5906 5906 5907 5907 5907 5907 5906 5904 5902 5902 5903 5902 5902 5901 5899 5897 5896 5896 5895 5894 5893 5892
5905 5906 5906 5907 5908 5910 5908 5907 5904 5903 5902 5900 5899 5901 5902 5903 5903 5904 5904 5905 5905 5906 5907 5907 5906 5906 5905 5905 5905 5906 5906 5906 5907 5905 5901 5901 5901 5902 5902 5901 5901 5899 5898 5896 5895 5894 5893 5892 5891
5902 5904 5905 5907 5906 5907 5906 5906 5903 5901 5900 5899 5901 5900 5901 5901 5902 5904 5906 5905 5905 5905 5905 5905 5905 5905 5904 5904 5903 5904 5906 5905 5905 5903 5901 5900 5900 5900 5901 5900 5900 5898 5897 5897 5895 5894 5892 5890 5889
5899 5901 5903 5903 5904 5905 5904 5904 5903 5901 5899 5898 5899 5900 5899 5900 5902 5903 5903 5904 5904 5903 5903 5903 5904 5905 5905 5904 5903 5903 5903 5904 5903 5901 5900 5899 5899 5899 5899 5899 5898 5897 5895 5894 5893 5891 5889 5887 5885
5894 5897 5900 5901 5902 5902 5902 5903 5902 5901 5900 5899 5899 5897 5897 5898 5900 5902 5901 5901 5902 5902 5902 5902 5902 5903 5903 5903 5903 5902 5902 5903 5902 5900 5899 5898 5899 5899 5898 5896 5895 5894 5893 5891 5889 5887 5886 5884 5882
5890 5894 5896 5897 5899 5901 5901 5901 5901 5900 5900 5900 5899 5896 5896 5896 5898 5899 5899 5899 5899 5901 5901 5901 5900 5900 5900 5900 5900 5900 5899 5901 5901 5900 5898 5896 5896 5896 5895 5894 5893 5891 5889 5887 5886 5884 5882 5880 5877
5886 5888 5890 5893 5896 5898 5900 5901 5899 5899 5900 5901 5899 5899 5898 5897 5897 5898 5898 5898 5897 5898 5899 5899 5899 5899 5900 5899 5898 5898 5899 5899 5898 5898 5895 5894 5894 5893 5892 5891 5889 5887 5885 5883 5881 5879 5876 5873 5870
5879 5882 5885 5888 5892 5895 5897 5901 5898 5897 5897 5898 5898 5900 5899 5898 5897 5897 5896 5896 5896 5896 5896 5896 5896 5897 5897 5898 5898 5897 5897 5896 5896 5895 5893 5891 5890 5890 5889 5887 5885 5882 5880 5877 5875 5872 5869 5866 5863
Wind_Speed
18 13 12 13 10 14 10 10 11 12 11 11 11 10 13 12 12 14 14 11 9 7 8 8 9 10 12 13 14 14 14 14 14 14 13 14 14 15 15 14 13 13 14 12 12 10 10 10 10
19 14 12 9 12 9 8 10 12 14 11 12 11 11 12 11 11 11 11 13 10 8 9 10 11 13 14 14 15 14 14 15 15 15 14 13 14 15 15 14 12 12 11 12 11 10 8 8 11
15 14 12 11 14 10 10 12 13 13 14 13 12 12 11 10 8 10 12 11 10 9 10 11 13 15 15 15 16 16 15 15 15 14 15 15 15 15 14 14 12 11 11 11 9 8 7 7 9
11 13 8 13 10 11 12 12 12 14 13 13 13 12 12 12 7 8 10 10 11 11 11 12 14 15 16 17 17 17 16 16 16 15 15 15 15 15 13 13 11 10 10 12 9 8 7 9 8
13 11 10 10 9 9 13 13 14 13 13 14 14 11 11 12 10 9 10 8 9 12 13 14 14 14 16 17 17 17 16 15 15 15 15 14 15 14 13 11 9 9 8 8 9 8 8 9 9
10 13 14 13 13 11 11 13 14 12 13 14 13 11 11 11 8 10 10 9 9 9 11 14 15 16 16 16 16 15 14 14 14 13 13 13 14 13 12 11 9 8 7 7 7 7 6 6 8
14 15 11 14 14 11 8 10 11 11 13 14 13 12 9 10 8 7 9 8 8 8 10 11 13 15 16 16 15 15 13 12 12 12 13 11 11 11 10 9 8 7 6 4 5 5 5 7 6
11 9 9 14 12 11 7 6 8 10 12 11 12 11 9 9 8 7 9 7 7 7 9 10 11 12 13 14 14 13 13 12 11 10 9 9 8 8 7 6 4 2 1 2 3 2 3 4 5
10 14 17 16 12 12 8 4 5 8 11 11 11 9 9 7 7 7 9 9 6 7 8 10 10 11 11 10 10 10 9 8 7 6 6 5 5 5 5 5 3 2 1 1 1 0 1 2 2
5 10 13 11 14 11 7 4 4 7 12 10 10 7 7 8 7 7 7 9 7 9 9 9 9 8 8 8 8 7 7 6 6 5 5 4 2 3 3 2 1 2 2 1 2 1 2 3 5
6 10 12 11 13 13 11 8 7 8 10 11 9 7 4 7 7 8 7 9 9 10 10 8 7 6 6 6 7 6 6 6 6 5 5 4 1 1 2 2 1 1 1 1 3 4 5 4 6
4 7 10 12 13 15 14 11 9 10 8 9 8 6 6 4 5 8 6 8 8 10 10 9 8 6 6 6 6 5 5 4 5 5 5 5 4 3 1 1 3 4 3 2 3 5 6 5 4
8 8 10 10 10 13 14 12 11 10 9 8 8 6 5 5 6 6 7 6 8 8 10 10 8 7 7 8 6 5 2 5 6 4 4 4 4 2 1 1 3 4 7 8 8 8 9 8 7
10 13 9 8 10 11 13 11 10 10 8 7 7 7 4 4 7 4 3 6 7 8 8 8 8 7 7 7 8 7 4 5 5 5 4 3 1 0 2 4 5 6 7 8 8 11 12 13 10
5 8 17 8 8 10 11 10 9 7 7 5 5 4 5 5 8 7 5 2 4 5 6 6 6 7 8 9 9 7 6 5 5 5 3 2 3 4 5 7 8 11 12 12 11 11 15 10 12
6 9 10 10 9 8 8 6 3 6 6 5 4 1 4 8 8 8 7 6 0 5 4 4 8 10 10 9 8 8 8 6 4 2 2 3 6 10 11 9 6 9 17 15 15 10 6 6 8
6 11 11 14 14 17 10 10 4 2 4 3 4 2 3 4 7 8 7 6 4 3 6 8 7 9 12 12 10 7 6 4 3 2 2 2 5 10 15 16 16 10 9 9 12 12 3 10 9
6 8 11 10 14 15 16 16 6 5 1 1 3 2 2 2 3 4 5 6 5 5 6 9 9 10 9 8 6 4 5 5 6 6 5 5 5 9 12 16 19 17 8 9 12 8 7 5 7
5 4 8 8 8 11 13 14 8 6 6 6 6 4 0 2 4 6 3 4 5 4 6 6 8 5 1 3 4 5 4 5 5 6 6 6 7 9 12 14 18 21 10 10 8 7 7 2 8
6 1 2 2 3 6 10 15 13 3 2 6 8 4 2 2 4 6 4 3 3 5 4 5 5 2 2 3 3 3 3 3 3 4 4 5 7 8 11 11 13 16 17 11 5 2 5 5 2
7 1 4 3 4 4 8 11 13 7 4 8 9 6 3 3 3 4 5 4 2 3 5 5 6 5 1 1 2 1 3 3 3 2 1 2 6 8 9 9 10 10 10 11 11 10 8 7 5
8 6 9 8 7 5 3 8 10 12 1 14 14 9 4 3 2 2 3 3 2 2 4 5 6 5 3 2 3 4 4 5 4 5 5 1 4 7 8 8 8 9 11 10 8 7 7 4 3
7 8 14 10 10 14 2 5 7 7 5 5 9 16 9 5 4 4 5 2 0 2 1 4 6 6 5 4 3 5 5 7 6 4 1 2 4 7 6 7 7 9 10 10 8 6 4 5 6
9 8 10 9 7 8 5 3 7 9 4 3 8 13 7 6 5 3 1 1 2 1 3 5 5 5 5 4 5 4 5 6 7 5 3 4 5 6 5 5 8 9 11 12 11 10 9 7 9
12 11 12 10 9 5 3 1 6 9 9 9 6 8 9 8 8 10 8 3 5 4 2 2 3 2 1 3 6 6 6 8 7 5 4 4 4 5 6 8 11 13 13 14 14 14 14 11 11
17 15 10 11 9 8 1 4 2 5 8 4 9 10 13 12 12 10 9 7 5 5 5 2 3 3 4 1 3 7 8 9 7 3 3 1 3 5 8 12 13 13 14 13 14 16 17 17 17
24 20 16 13 8 5 3 5 3 4 2 3 4 7 7 8 9 7 6 8 6 6 6 4 4 5 7 7 7 6 9 11 9 7 4 3 7 8 10 11 11 12 13 15 17 19 21 21 22
24 24 24 17 12 7 5 7 6 4 5 6 5 9 9 8 10 11 11 11 7 8 8 5 5 6 7 8 8 8 9 12 12 9 6 5 7 8 9 10 12 13 16 18 20 22 24 26 27
26 26 27 22 17 11 8 10 11 10 7 7 2 4 6 6 7 10 12 13 13 14 12 10 8 7 8 7 7 7 9 11 11 6 4 5 6 7 9 11 14 16 18 20 22 23 25 25 27
31 30 27 23 22 15 11 13 16 14 11 9 5 7 6 6 3 7 10 12 14 14 15 13 11 9 8 6 7 8 9 8 5 5 6 6 6 6 8 13 16 16 18 18 20 22 24 25 28
Wind_Direction
62 73 67 69 84 77 63 91 94 97 89 96 92 98 97 102 111 114 117 111 119 128 130 133 132 139 138 135 131 127 126 125 124 121 117 108 100 95 93 95 93 90 90 92 95 93 81 80 84
61 69 51 59 55 59 49 79 95 95 87 94 93 92 97 102 109 113 111 107 105 110 120 130 133 132 134 135 130 126 122 121 122 125 118 112 103 96 97 97 92 88 86 93 93 94 93 89 86
53 63 65 55 52 52 54 80 93 90 91 95 93 94 98 105 115 115 109 106 106 109 112 127 133 134 135 137 133 128 126 124 126 128 125 118 110 103 98 94 87 81 76 83 96 92 90 93 89
47 55 72 61 54 57 68 91 84 83 90 94 96 93 93 99 101 109 108 109 110 106 112 125 131 135 135 137 134 126 126 125 128 129 123 121 113 108 107 99 93 88 76 76 89 93 89 89 87
43 52 62 49 40 49 69 82 87 91 88 90 88 89 88 97 100 96 101 107 107 109 115 122 126 130 130 131 129 127 129 129 130 128 127 127 122 119 114 110 104 99 89 78 81 83 86 86 88
53 54 61 62 53 52 66 78 89 89 87 86 87 88 88 93 97 106 111 114 109 108 117 119 120 123 124 129 130 129 133 135 131 128 131 132 128 119 118 121 118 109 101 89 79 62 57 72 74
71 64 66 61 60 62 55 73 89 90 88 86 95 94 93 99 103 115 107 104 111 118 114 120 124 124 126 129 130 133 137 137 136 138 135 133 123 127 131 127 125 115 100 85 69 64 52 46 59
68 58 56 65 56 58 53 57 81 84 86 89 91 96 99 102 111 127 118 104 104 123 128 130 133 133 134 133 134 139 143 142 145 143 141 127 131 137 130 135 137 105 100 123 86 57 49 63 61
62 69 70 66 64 74 65 62 78 79 78 79 85 95 109 111 122 131 131 125 128 141 136 139 144 146 139 136 134 133 131 135 134 132 122 111 108 135 151 154 129 71 49 212 217 170 330 337 345
25 64 68 52 73 92 95 85 64 68 75 72 78 87 115 119 113 107 130 134 155 160 149 154 153 143 142 138 127 120 121 121 127 124 116 108 130 165 174 173 122 57 32 141 213 286 297 329 314
12 44 56 69 65 79 99 94 94 79 68 69 69 82 114 131 130 125 137 142 154 164 160 153 150 142 144 148 142 126 124 120 120 115 100 100 151 186 200 227 279 336 310 222 231 240 240 270 288
35 36 46 65 68 82 95 107 108 97 75 70 63 64 71 100 126 115 133 147 155 163 164 160 163 164 165 156 138 123 122 79 107 106 102 105 110 110 159 241 293 270 285 308 257 252 261 263 257
38 59 45 41 40 69 89 96 107 92 77 58 64 46 49 82 113 144 142 155 152 171 168 172 170 171 162 158 154 159 134 122 114 106 99 106 99 81 59 344 349 332 292 274 277 285 275 280 276
67 74 55 50 45 46 65 80 71 76 70 51 34 46 33 52 69 69 151 159 171 169 178 181 175 165 150 137 127 140 144 128 114 100 100 79 74 235 264 272 279 293 297 283 270 288 280 273 281
55 52 43 61 70 45 34 65 45 32 30 28 11 32 76 55 74 62 37 184 179 202 183 179 164 143 136 131 128 134 122 111 92 83 73 42 322 309 299 292 273 276 282 276 287 298 306 267 276
65 57 44 93 107 68 20 37 63 24 5 346 335 22 71 80 82 89 78 50 23 219 206 152 143 141 130 126 130 119 109 103 88 65 23 339 331 333 315 11 353 303 279 290 267 298 278 275 312
22 59 51 86 87 65 62 8 348 47 11 337 304 191 98 72 87 90 100 96 99 142 149 153 157 144 135 131 130 129 120 90 63 42 15 37 6 358 352 6 4 348 317 334 268 290 261 290 294
27 71 53 88 87 77 63 52 28 332 247 150 165 255 291 86 68 75 116 124 135 144 152 144 135 130 128 126 120 112 102 88 78 82 79 62 21 8 6 10 6 356 307 267 270 281 216 261 304
49 107 61 101 107 84 70 54 55 310 146 154 142 150 209 355 53 53 72 121 122 139 154 141 131 126 62 103 103 116 129 118 103 84 67 44 24 15 15 17 15 16 4 296 338 254 217 242 305
318 37 65 127 109 84 65 63 61 23 188 165 171 179 184 291 4 48 62 144 170 172 171 154 128 96 101 84 95 134 126 111 91 55 19 5 19 20 16 18 23 21 41 48 52 351 247 288 250
314 268 278 253 224 55 52 64 62 66 218 227 199 189 256 274 353 21 70 147 203 244 220 182 133 119 109 91 84 147 183 154 126 170 353 335 15 9 4 20 29 26 40 47 57 67 72 81 83
293 317 282 287 244 270 22 52 47 45 326 248 249 226 208 178 165 113 97 127 162 2 235 213 177 174 195 228 280 266 237 234 228 237 224 217 17 4 2 8 16 20 24 32 47 54 55 52 34
273 294 296 301 274 272 256 41 21 31 18 286 248 227 230 238 212 132 98 107 96 32 344 283 247 201 205 188 218 238 267 245 259 243 193 332 1 359 357 351 356 3 2 356 356 359 358 342 329
254 266 291 306 278 249 224 113 346 15 331 258 234 234 246 236 226 286 259 323 254 277 354 321 272 234 224 208 196 235 262 264 259 252 280 315 337 342 342 334 336 342 345 343 346 345 340 330 315
244 252 268 281 288 276 218 252 343 12 356 261 231 274 274 256 257 284 268 291 328 241 207 2 311 311 212 195 212 223 270 268 259 262 291 305 329 335 326 331 335 339 339 338 342 341 337 331 327
234 245 260 274 288 302 173 167 295 32 14 312 261 278 286 277 272 283 266 278 295 252 221 223 339 326 334 13 242 253 261 263 248 266 301 328 311 323 328 326 327 330 330 333 338 332 325 323 319
232 245 256 264 266 286 259 155 216 18 84 212 337 326 342 329 292 294 283 279 274 280 268 306 323 318 335 315 308 280 275 275 276 273 283 294 305 319 320 322 327 327 324 327 326 322 319 316 311
234 241 250 255 258 268 231 198 181 152 135 142 18 29 17 345 329 320 309 303 289 285 287 296 309 303 303 313 305 282 276 278 275 283 296 326 315 314 317 330 328 325 322 320 317 313 308 305 304
240 238 241 244 246 260 235 212 212 194 176 140 129 56 36 12 335 306 297 301 299 289 287 286 294 300 306 303 299 301 289 279 277 285 319 315 302 308 317 317 316 317 320 318 312 310 306 302 297
231 231 235 240 246 248 252 226 236 213 207 195 219 210 357 312 302 321 310 302 293 291 288 286 282 276 289 293 304 307 293 279 283 282 286 279 284 301 308 310 315 319 317 317 319 317 316 318 311